Puerto Plata, Dominican Republic

3:01 AM AST on March 27, 2017 (GMT -0400)
Puerto Plata

Weather History for MDPP - May, 2012

Change the Weather History Date:

Tuesday, May 1, 2012

  Actual Average Record
Temperature  
Mean Temperature 78 °F -  
Max Temperature 84 °F 84 °F 98 °F (2015)
Min Temperature 72 °F 73 °F 68 °F (2016)
Cooling Degree Days 13    
Growing Degree Days 28 (Base 50)    
Moisture  
Dew Point 73 °F    
Average Humidity 81    
Maximum Humidity 94    
Minimum Humidity 72    
Precipitation  
Precipitation 0.00 in - - ()
Sea Level Pressure  
Sea Level Pressure 29.99 in    
Wind  
Wind Speed 7 mph ()    
Max Wind Speed 21 mph    
Max Gust Speed -    
Visibility 7.4 miles    
Events      
Averages and records for this station are not official NWS values.
T = Trace of Precipitation, MM = Missing Value Source: Averaged Metar Reports

Daily Weather History Graph

Daily Weather History Graph

Search for Another Location

Airport or City:

Trip Planner

Search our weather history database for the weather conditions in past years. The results will help you decide how hot, cold, wet, or windy it might be!

Date:

Astronomy

May. 01, 2012 Rise Set
Actual Time 6:13 AM AST 7:05 PM AST
Civil Twilight 5:50 AM AST 7:28 PM AST
Nautical Twilight 5:22 AM AST 7:55 PM AST
Astronomical Twilight 4:55 AM AST 8:23 PM AST
Moon 2:42 PM AST (5/1) 2:27 AM AST (5/1)
Length of Visible Light 13h 38m
Length of Day
12h 52m
Waxing Gibbous, 73% of the Moon is Illuminated
May 1
Waxing Gibbous
May 5
Full
May 12
Last Quarter
May 20
New
May 28
First Quarter

Hourly Weather History & Observations

Time (AST) Temp. Heat Index Dew Point Humidity Pressure Visibility Wind Dir Wind Speed Gust Speed Precip Events Conditions
2:00 AM 74 °F - 71 °F 86% 30.03 in 10 mi Calm Calm - -   Scattered Clouds
2:00 AM 73.4 °F - 71.6 °F 94% 30.01 in 6.2 mi Calm Calm - N/A   Mostly Cloudy
5:00 AM 73 °F - 71 °F 92% 29.99 in 10 mi ESE 6.7 mph - -   Partly Cloudy
5:00 AM 73.4 °F - 71.6 °F 94% 29.98 in 6.2 mi ESE 6.9 mph - N/A   Mostly Cloudy
8:00 AM 77 °F - 72 °F 82% 30.01 in 10 mi East 6.7 mph - -   Scattered Clouds
8:00 AM 77.0 °F - 73.4 °F 89% 29.98 in 6.2 mi East 6.9 mph - N/A   Scattered Clouds
9:00 AM 80.6 °F 86.2 °F 75.2 °F 84% 30.01 in 6.2 mi SSE 6.9 mph - N/A   Mostly Cloudy
10:00 AM 82.4 °F 89.5 °F 75.2 °F 79% 30.01 in 6.2 mi ESE 8.1 mph - N/A   Scattered Clouds
11:00 AM 82 °F - 75 °F 73% 30.03 in 10 mi East 8.9 mph - -   Partly Cloudy
11:00 AM 82.4 °F 89.5 °F 75.2 °F 79% 30.01 in 6.2 mi East 9.2 mph - N/A   Mostly Cloudy
12:00 PM 82.4 °F 89.5 °F 75.2 °F 79% 30.01 in 6.2 mi East 17.3 mph - N/A   Scattered Clouds
1:00 PM 82.4 °F 89.5 °F 75.2 °F 79% 30.01 in 6.2 mi East 20.7 mph - N/A   Mostly Cloudy
2:00 PM 82 °F - 75 °F 73% 30.01 in 10 mi East 15.7 mph - -   Mostly Cloudy
2:00 PM 82.4 °F 89.5 °F 75.2 °F 79% 30.01 in 6.2 mi East 16.1 mph - N/A   Mostly Cloudy
3:00 PM 82.4 °F 88.2 °F 73.4 °F 74% 29.95 in 6.2 mi East 13.8 mph - N/A   Scattered Clouds
4:00 PM 82.4 °F 88.2 °F 73.4 °F 74% 29.95 in 6.2 mi East 13.8 mph - N/A   Scattered Clouds
5:00 PM 81 °F - 73 °F 72% 29.96 in 10 mi East 13.4 mph - -   Scattered Clouds
5:00 PM 80.6 °F 85.4 °F 73.4 °F 79% 29.95 in 6.2 mi ESE 13.8 mph - N/A   Scattered Clouds
6:00 PM 80.6 °F 85.4 °F 73.4 °F 79% 29.95 in 6.2 mi East 11.5 mph - N/A   Scattered Clouds
6:02 PM 80.6 °F 85.4 °F 73.4 °F 79% 29.95 in 6.2 mi East 11.5 mph - N/A   Scattered Clouds
7:00 PM 78.8 °F - 71.6 °F 78% 29.98 in 6.2 mi East 11.5 mph - N/A   Scattered Clouds
8:00 PM 78 °F - 72 °F 76% 30.00 in 10 mi East 8.9 mph - -   Partly Cloudy
8:00 PM 77.0 °F - 71.6 °F 83% 29.98 in 6.2 mi East 9.2 mph - N/A   Scattered Clouds
11:00 PM 76 °F - 71 °F 82% 30.03 in 10 mi Calm Calm - -   Mostly Cloudy
11:00 PM 75.2 °F - 71.6 °F 89% 30.01 in 6.2 mi Calm Calm - N/A   Mostly Cloudy